Flag for Moldova Weather past 2 weeks in Chisinau, Moldova

Now
68 °F

Partly sunny.


Feels Like: 68 °F
Forecast: 47 / 60 °F
Wind: 9 mph from Northeast

Location: Chisinau International Airport

Current Time: Oct 1, 2014 at 4:37:42 PM

Latest Report: Oct 1, 2014 at 4:00 PM


Visibility: N/A

Pressure: 30.24 "Hg

Humidity: 43%

Dew point: 45 °F

Location of ChisinauLocation

Historic Weather in Chisinau — Graph

°F

Chisinau temperature yesterday

Maximum temperature yesterday: 75 °F (at 3:00 PM)
Minimum temperature yesterday: 41 °F (at 7:00 AM)
Average temperature yesterday: 59 °F

Past Weeks' High & Low Weather Summary

 TemperatureHumidityPressure
High79 °F (Sep 22, 5:00 PM)93% (Sep 30, 7:30 AM)30.39 "Hg (Sep 30, 7:30 AM)
Low32 °F (Sep 25, 6:00 AM)13% (Sep 19, 5:00 PM)29.56 "Hg (Sep 22, 11:00 PM)
Average58 °F57%30.07 "Hg
* Reported Sep 16 3:00 PM — Oct 1 3:30 PM, Chisinau, Weather by CustomWeather, © 2014

Note: Actual official high and low records may vary slightly from our data, if they occured in-between our weather recording intervals... More about our weather records

Advertising

Chisinau weather history for previous 24 hours

 ConditionsComfort  
Time TempWeatherWind HumidityBarometerVisibility
3:30 PM
Oct 1
68 °FPartly sunny.8 mph43%30.27 "HgN/A
3:00 PM68 °FPartly sunny.7 mph43%30.27 "HgN/A
2:30 PM68 °FPartly sunny.5 mph46%30.27 "HgN/A
2:00 PM68 °FPartly sunny.8 mph46%30.27 "HgN/A
1:30 PM68 °FPartly sunny.8 mph46%30.27 "HgN/A
1:00 PM66 °FPartly sunny.7 mph56%30.27 "HgN/A
12:30 PM66 °FPartly sunny.7 mph56%30.27 "HgN/A
12:00 PM66 °FScattered clouds.8 mph56%30.27 "HgN/A
11:30 AM64 °FPartly sunny.2 mph60%30.27 "Hg5 mi
11:00 AM61 °FOvercast.5 mph68%30.27 "Hg5 mi
10:30 AM59 °FOvercast.6 mph72%30.24 "Hg5 mi
10:00 AM57 °FOvercast.7 mph77%30.24 "HgN/A
9:30 AM57 °FOvercast.5 mph72%30.24 "HgN/A
9:00 AM57 °FOvercast.3 mph72%30.24 "HgN/A
8:30 AM55 °FPartly sunny.5 mph77%30.21 "HgN/A
8:00 AM55 °FPassing clouds.3 mph77%30.21 "HgN/A
7:30 AM54 °FPassing clouds.2 mph77%30.21 "HgN/A
7:00 AM52 °FPassing clouds.1 mph82%30.18 "HgN/A
6:30 AM52 °FPassing clouds.1 mph82%30.21 "HgN/A
6:00 AM54 °FPassing clouds.6 mph77%30.21 "HgN/A
5:30 AM54 °FPassing clouds.7 mph77%30.21 "HgN/A
5:00 AM52 °FPassing clouds.3 mph82%30.18 "HgN/A
4:30 AM54 °FPassing clouds.7 mph77%30.18 "HgN/A
4:00 AM52 °FPassing clouds.2 mph77%30.18 "HgN/A
3:30 AM52 °FPassing clouds.5 mph77%30.18 "HgN/A
3:00 AM54 °FPassing clouds.2 mph72%30.18 "HgN/A
2:30 AM52 °FClear.2 mph77%30.18 "Hg10 mi
2:00 AM52 °FPassing clouds.3 mph77%30.18 "HgN/A
1:30 AM50 °FPassing clouds.3 mph82%30.18 "HgN/A
1:00 AM54 °FClear.3 mph77%30.18 "Hg10 mi
12:30 AM55 °FPassing clouds.5 mph67%30.18 "HgN/A
11:30 PM
Sep 30
54 °FPassing clouds.3 mph72%30.18 "HgN/A
11:00 PM55 °FClear.6 mph72%30.18 "Hg10 mi
10:30 PM59 °FClear.8 mph59%30.18 "Hg10 mi
10:00 PM55 °FClear.2 mph67%30.18 "Hg10 mi
9:30 PM59 °FClear.2 mph59%30.18 "Hg10 mi
9:00 PM64 °FClear.5 mph46%30.18 "Hg10 mi
8:30 PM64 °FClear.3 mph46%30.18 "Hg10 mi
8:00 PM66 °FClear.3 mph43%30.18 "Hg10 mi
7:30 PM66 °FSunny.7 mph43%30.18 "Hg10 mi
7:00 PM68 °FSunny.7 mph43%30.15 "Hg10 mi
6:30 PM70 °FSunny.8 mph38%30.15 "Hg10 mi
6:00 PM72 °FSunny.7 mph36%30.15 "Hg10 mi
5:30 PM73 °FSunny.8 mph31%30.15 "Hg10 mi
5:00 PM73 °FSunny.10 mph31%30.15 "Hg10 mi
4:30 PM75 °FPassing clouds.9 mph31%30.15 "HgN/A
4:00 PM75 °FSunny.10 mph34%30.15 "Hg10 mi
Weather by CustomWeather, © 2014

See weather overviewHow to use our weather pages